Location: Dunedin
(45.8670°S, 170.5000°E)
Time: 17:10:11
(UTC+13:00)

Spot 2 Rocket - Pass Details

Date: 24 January 2019
Orbit: 757 x 772 km, 98.6° (Epoch: 18 October)

Event Time Altitude Azimuth Distance (km) Brightness Sun altitude
Rises 23:13:35 0° 166° (SSE) 3,287 7.3 -15.9°
Reaches altitude 10° 23:15:55 10° 166° (SSE) 2,350 6.5 -16.1°
Maximum altitude 23:21:07 88° 77° (ENE) 786 3.5 -16.7°
Enters shadow 23:25:30 14° 345° (NNW) 2,018 5.3 -17.1°
